Terminal Aerodrome Forecast
Issued by NWS Charleston, WV

Current Version | Previous Version | Graphics & Text | Print | Product List | Glossary On
Versions: 1 2 3 4 5 6 7 8 9 10 11 12 13 14 15 16 17 18 19 20 21 22 23 24 25
000
FTUS41 KRLX 212339
TAFBKW
TAF
KBKW 212339Z 2200/2224 02006KT P6SM BKN090 BKN100
     FM220500 09003KT 5SM BR SCT002
      TEMPO 2205/2208 2SM BR
     FM220800 00000KT 1SM BR VV002
     FM221100 13003KT 5SM BR BKN002
     FM221300 00000KT P6SM FEW040=

USA.gov is the U.S. government's official web portal to all federal, state and local government web resources and services.